TimeEDT,TemperatureF,Dew PointF,Humidity,Sea Level PressureIn,VisibilityMPH,Wind Direction,Wind SpeedMPH,Gust SpeedMPH,PrecipitationIn,Events,Conditions,WindDirDegrees,DateUTC
12:54 AM,50.0,48.9,96,29.97,10.0,South,3.5,-,N/A,,Clear,170,2009-10-02 04:54:00
1:54 AM,51.1,48.9,92,29.95,10.0,SE,4.6,-,N/A,,Clear,130,2009-10-02 05:54:00
2:54 AM,51.1,48.9,92,29.96,10.0,Calm,Calm,-,N/A,,Clear,0,2009-10-02 06:54:00
3:54 AM,50.0,48.0,93,29.93,9.0,SSW,3.5,-,N/A,,Clear,200,2009-10-02 07:54:00
4:54 AM,50.0,48.0,93,29.93,9.0,Calm,Calm,-,N/A,,Clear,0,2009-10-02 08:54:00
5:54 AM,51.1,48.9,92,29.93,10.0,Calm,Calm,-,N/A,,Clear,0,2009-10-02 09:54:00
6:54 AM,52.0,48.9,89,29.93,10.0,ESE,3.5,-,N/A,,Clear,120,2009-10-02 10:54:00
7:54 AM,53.1,50.0,89,29.93,10.0,East,4.6,-,N/A,,Clear,100,2009-10-02 11:54:00
8:54 AM,55.0,51.1,86,29.94,10.0,Calm,Calm,-,N/A,,Clear,0,2009-10-02 12:54:00
9:54 AM,59.0,52.0,78,29.94,10.0,South,8.1,-,N/A,,Clear,170,2009-10-02 13:54:00
10:54 AM,61.0,52.0,72,29.93,10.0,South,6.9,-,N/A,,Clear,190,2009-10-02 14:54:00
11:54 AM,62.1,53.1,72,29.91,10.0,South,11.5,-,N/A,,Scattered Clouds,180,2009-10-02 15:54:00
12:54 PM,64.9,52.0,63,29.89,10.0,South,12.7,18.4,N/A,,Clear,180,2009-10-02 16:54:00
1:54 PM,66.0,53.1,63,29.86,10.0,South,12.7,19.6,N/A,,Partly Cloudy,190,2009-10-02 17:54:00
2:54 PM,66.0,54.0,65,29.86,10.0,SSW,12.7,23.0,N/A,,Overcast,200,2009-10-02 18:54:00
3:54 PM,66.0,55.0,68,29.85,10.0,SSW,10.4,23.0,N/A,,Mostly Cloudy,200,2009-10-02 19:54:00
4:14 PM,64.4,55.4,73,29.89,10.0,South,10.4,20.7,N/A,,Mostly Cloudy,180,2009-10-02 20:14:00
4:45 PM,64.4,55.4,73,29.89,10.0,SSW,8.1,17.3,N/A,,Overcast,200,2009-10-02 20:45:00
4:54 PM,64.0,55.9,75,29.86,10.0,SW,5.8,-,N/A,,Overcast,220,2009-10-02 20:54:00
5:54 PM,61.0,57.9,90,29.86,8.0,South,8.1,-,N/A,,Overcast,180,2009-10-02 21:54:00
6:49 PM,60.8,57.2,88,29.90,8.0,South,6.9,-,N/A,,Overcast,180,2009-10-02 22:49:00
6:54 PM,60.1,57.9,93,29.86,8.0,South,5.8,-,N/A,,Overcast,180,2009-10-02 22:54:00
7:54 PM,60.1,57.9,93,29.87,10.0,South,6.9,-,N/A,,Mostly Cloudy,170,2009-10-02 23:54:00
8:05 PM,60.8,57.2,88,29.91,10.0,Variable,3.5,-,N/A,,Mostly Cloudy,0,2009-10-03 00:05:00
8:54 PM,61.0,57.9,90,29.88,10.0,Variable,4.6,-,N/A,,Overcast,0,2009-10-03 00:54:00
9:14 PM,60.8,57.2,88,29.92,9.0,South,6.9,-,N/A,,Scattered Clouds,180,2009-10-03 01:14:00
9:54 PM,59.0,57.0,93,29.88,8.0,South,5.8,-,N/A,,Clear,190,2009-10-03 01:54:00
10:54 PM,57.0,55.9,96,29.89,5.0,South,4.6,-,N/A,,Clear,190,2009-10-03 02:54:00
11:54 PM,55.0,54.0,96,29.90,6.0,Calm,Calm,-,N/A,,Clear,0,2009-10-03 03:54:00